Lamar, CO

2:06 PM MST on November 16, 2019 (GMT -0700)
Lamar Municipal

Weather History for KLAA - September, 2019

Change the Weather History Date:

Saturday, September 28, 2019

  Actual Average Record
Temperature  
Mean Temperature 68 °F 61 °F  
Max Temperature 82 °F 78 °F 100 °F (1921)
Min Temperature 53 °F 44 °F 28 °F (1924)
Degree Days  
Heating Degree Days 0 6  
Month to date heating degree days 6 68  
Since 1 July heating degree days 6 73  
Cooling Degree Days 3 2  
Month to date cooling degree days 269 119  
Year to date cooling degree days 1371 1108  
Growing Degree Days 17 (Base 50)    
Moisture  
Dew Point 51 °F    
Average Humidity 63    
Maximum Humidity 93    
Minimum Humidity 33    
Precipitation  
Precipitation 0.01 in 0.03 in 1.35 in (1935)
Month to date precipitation 0.52 1.19  
Year to date precipitation 7.75 13.56  
Sea Level Pressure  
Sea Level Pressure 29.84 in    
Wind  
Wind Speed 11 mph (East)    
Max Wind Speed 25 mph    
Max Gust Speed 35 mph    
Visibility 10 miles    
Events Rain    
T = Trace of Precipitation, MM = Missing Value Source: NWS Daily Summary

Daily Weather History Graph

Daily Weather History Graph

Search for Another Location

Airport or City:

Astronomy

Sep. 28, 2019 Rise Set
Actual Time 6:43 AM MDT 6:38 PM MDT
Civil Twilight 6:17 AM MDT 7:04 PM MDT
Nautical Twilight 5:46 AM MDT 7:35 PM MDT
Astronomical Twilight 5:15 AM MDT 8:06 PM MDT
Moon 6:23 AM MDT (9/28) 7:05 PM MDT (9/28)
Length of Visible Light 12h 47m
Length of Day
11h 54m
Waning Crescent, 0% of the Moon is Illuminated
Sep 28
Waning Crescent
Sep 28
New
Oct 5
First Quarter
Oct 13
Full
Oct 21
Last Quarter

Hourly Weather History & Observations

Time (MDT) Temp. Dew Point Humidity Pressure Visibility Wind Dir Wind Speed Gust Speed Precip Events Conditions
12:53 AM 60.1 °F 45.0 °F 57% 29.78 in 10.0 mi ENE 19.6 mph 32.2 mph N/A   Overcast
1:53 AM 59.0 °F 46.0 °F 62% 29.80 in 10.0 mi ENE 21.9 mph 28.8 mph N/A   Overcast
2:53 AM 57.0 °F 46.0 °F 67% 29.81 in 10.0 mi ENE 20.7 mph 28.8 mph N/A   Overcast
3:53 AM 57.0 °F 45.0 °F 64% 29.83 in 10.0 mi ENE 10.4 mph - N/A   Overcast
4:53 AM 53.1 °F 48.0 °F 83% 29.84 in 9.0 mi East 6.9 mph - 0.00 in Rain Light Rain
5:10 AM 53.1 °F 48.0 °F 83% 29.95 in 10.0 mi East 8.1 mph - 0.00 in   Overcast
5:48 AM 53.6 °F 48.2 °F 82% 29.98 in 10.0 mi ESE 9.2 mph - 0.00 in   Overcast
5:53 AM 54.0 °F 48.0 °F 80% 29.88 in 10.0 mi ESE 6.9 mph - 0.00 in   Overcast
6:53 AM 53.1 °F 50.0 °F 89% 29.91 in 9.0 mi Calm Calm - 0.01 in Rain Light Rain
7:53 AM 53.1 °F 51.1 °F 93% 29.94 in 10.0 mi East 5.8 mph - 0.00 in   Overcast
8:24 AM 53.1 °F 51.1 °F 93% 30.03 in 10.0 mi Calm Calm - N/A   Overcast
8:38 AM 53.1 °F 51.1 °F 93% 30.03 in 10.0 mi NNE 3.5 mph - N/A   Overcast
8:53 AM 54.0 °F 51.1 °F 90% 29.95 in 10.0 mi Calm Calm - N/A   Overcast
9:11 AM 54.0 °F 51.1 °F 90% 30.04 in 10.0 mi East 3.5 mph - N/A   Overcast
9:53 AM 55.0 °F 51.1 °F 86% 29.95 in 10.0 mi East 3.5 mph - N/A   Overcast
10:53 AM 57.9 °F 52.0 °F 81% 29.93 in 10.0 mi ESE 4.6 mph - N/A   Overcast
11:01 AM 55.9 °F 51.1 °F 84% 30.02 in 10.0 mi Calm Calm - N/A   Overcast
11:53 AM 60.1 °F 51.1 °F 72% 29.90 in 10.0 mi Variable 4.6 mph - N/A   Overcast
12:53 PM 61.0 °F 51.1 °F 70% 29.87 in 10.0 mi ENE 5.8 mph - N/A   Overcast
1:46 PM 64.9 °F 51.1 °F 61% 29.91 in 10.0 mi NE 6.9 mph - N/A   Scattered Clouds
1:53 PM 64.9 °F 51.1 °F 61% 29.81 in 10.0 mi ENE 9.2 mph 18.4 mph N/A   Partly Cloudy
2:53 PM 72.0 °F 51.1 °F 48% 29.76 in 10.0 mi East 8.1 mph 18.4 mph N/A   Clear
3:53 PM 75.0 °F 52.0 °F 44% 29.71 in 10.0 mi ENE 17.3 mph - N/A   Clear
4:53 PM 72.0 °F 53.1 °F 51% 29.71 in 10.0 mi East 15.0 mph - N/A   Clear
5:53 PM 81.0 °F 48.9 °F 33% 29.67 in 10.0 mi SSE 18.4 mph 28.8 mph N/A   Clear
6:53 PM 77.0 °F 48.0 °F 36% 29.68 in 10.0 mi South 13.8 mph - N/A   Clear
7:53 PM 69.1 °F 50.0 °F 51% 29.70 in 10.0 mi SE 11.5 mph - N/A   Clear
8:53 PM 70.0 °F 53.1 °F 55% 29.71 in 10.0 mi SE 19.6 mph 26.5 mph N/A   Clear
9:53 PM 68.0 °F 57.0 °F 68% 29.71 in 10.0 mi SE 17.3 mph 25.3 mph N/A   Clear
10:53 PM 66.0 °F 57.9 °F 75% 29.69 in 10.0 mi SE 15.0 mph - N/A   Clear
11:53 PM 69.1 °F 60.1 °F 73% 29.67 in 10.0 mi South 21.9 mph 31.1 mph N/A   Clear